• In United Kingdom
  • List of Countries
  • For 7 days
  • Water Temperature
  • Satellite Maps
  • Weather Map
  • Weather Widgets
  • user-avatar
    Login

    Hourly Weather Oran

    Today, 19 October, Thursday

    Time Temperature Precipitation Wind Pressure Humidity
    00:00 +22°C° 0 mm 5 mps 750 mmHg 64%
    01:00 +22°C° 0.3 mm 5 mps 750 mmHg 62%
    02:00 +22°C° 0.3 mm 5 mps 750 mmHg 60%
    03:00 +22°C° 0.3 mm 5 mps 749 mmHg 58%
    04:00 +22°C° 0.4 mm 6 mps 749 mmHg 58%
    05:00 +22°C° 0.4 mm 6 mps 749 mmHg 58%
    06:00 +22°C° 0.4 mm 7 mps 749 mmHg 58%
    07:00 +22°C° 2.6 mm 7 mps 749 mmHg 60%
    08:00 +22°C° 2.6 mm 7 mps 749 mmHg 62%
    09:00 +21°C° 2.6 mm 7 mps 750 mmHg 64%
    10:00 +21°C° 3.2 mm 7 mps 750 mmHg 67%
    11:00 +21°C° 3.2 mm 7 mps 750 mmHg 70%
    12:00 +21°C° 3.2 mm 8 mps 750 mmHg 74%
    13:00 +21°C° 1.1 mm 8 mps 750 mmHg 72%
    14:00 +21°C° 1.1 mm 9 mps 749 mmHg 70%
    15:00 +22°C° 1.1 mm 9 mps 749 mmHg 68%
    16:00 +21°C° 0.5 mm 9 mps 749 mmHg 69%
    17:00 +21°C° 0.5 mm 8 mps 750 mmHg 70%
    18:00 +21°C° 0.5 mm 8 mps 750 mmHg 72%
    19:00 +21°C° 0.7 mm 8 mps 750 mmHg 73%
    20:00 +21°C° 0.7 mm 7 mps 751 mmHg 74%
    21:00 +20°C° 0.7 mm 7 mps 751 mmHg 75%
    22:00 +20°C° 0.7 mm 7 mps 751 mmHg 75%
    23:00 +20°C° 0.7 mm 6 mps 751 mmHg 76%

    Tomorrow, 20 October, Friday

    Time Temperature Precipitation Wind Pressure Humidity
    00:00 +20°C° 0.7 mm 6 mps 752 mmHg 77%
    01:00 +20°C° 0.2 mm 5 mps 752 mmHg 78%
    02:00 +20°C° 0.2 mm 4 mps 752 mmHg 79%
    03:00 +20°C° 0.2 mm 4 mps 752 mmHg 80%
    04:00 +19°C° 0 mm 4 mps 752 mmHg 81%
    05:00 +19°C° 0 mm 4 mps 752 mmHg 83%
    06:00 +19°C° 0 mm 4 mps 753 mmHg 84%
    07:00 +20°C° 0.1 mm 4 mps 753 mmHg 79%
    08:00 +21°C° 0.1 mm 4 mps 754 mmHg 73%
    09:00 +22°C° 0.1 mm 5 mps 754 mmHg 68%
    10:00 +23°C° 0.1 mm 5 mps 754 mmHg 65%
    11:00 +23°C° 0.1 mm 5 mps 754 mmHg 62%
    12:00 +25°C° 0.1 mm 5 mps 755 mmHg 59%
    13:00 +25°C° 0 mm 5 mps 754 mmHg 59%
    14:00 +25°C° 0 mm 5 mps 754 mmHg 59%
    15:00 +25°C° 0 mm 5 mps 754 mmHg 60%
    16:00 +23°C° 0 mm 4 mps 755 mmHg 64%
    17:00 +24°C° 0 mm 3 mps 755 mmHg 69%
    18:00 +22°C° 0 mm 3 mps 755 mmHg 73%
    19:00 +23°C° 0 mm 2 mps 756 mmHg 75%
    20:00 +21°C° 0 mm 2 mps 756 mmHg 76%
    21:00 +22°C° 0 mm 1 mps 757 mmHg 78%
    22:00 +22°C° 0 mm 1 mps 756 mmHg 78%
    23:00 +21°C° 0 mm 1 mps 756 mmHg 78%

    Day after tomorrow, 21 October, Saturday

    Time Temperature Precipitation Wind Pressure Humidity
    00:00 +21°C° 0 mm 1 mps 756 mmHg 79%
    01:00 +21°C° 0 mm 1 mps 756 mmHg 78%
    02:00 +20°C° 0 mm 1 mps 756 mmHg 78%
    03:00 +20°C° 0 mm 1 mps 756 mmHg 77%
    04:00 +20°C° 0 mm 1 mps 756 mmHg 76%
    05:00 +20°C° 0 mm 1 mps 756 mmHg 75%
    06:00 +20°C° 0 mm 1 mps 756 mmHg 74%
    07:00 +21°C° 0 mm 1 mps 757 mmHg 65%
    08:00 +23°C° 0 mm 1 mps 757 mmHg 56%
    09:00 +24°C° 0 mm 1 mps 757 mmHg 47%
    10:00 +25°C° 0 mm 1 mps 757 mmHg 43%
    11:00 +26°C° 0 mm 1 mps 757 mmHg 38%
    12:00 +25°C° 0 mm 0 mps 757 mmHg 34%
    13:00 +27°C° 0 mm 1 mps 756 mmHg 34%
    14:00 +28°C° 0 mm 1 mps 756 mmHg 34%
    15:00 +28°C° 0 mm 2 mps 756 mmHg 34%
    16:00 +27°C° 0 mm 2 mps 756 mmHg 37%
    17:00 +26°C° 0 mm 2 mps 756 mmHg 41%
    18:00 +26°C° 0 mm 2 mps 756 mmHg 44%
    19:00 +25°C° 0 mm 2 mps 756 mmHg 46%
    20:00 +25°C° 0 mm 2 mps 757 mmHg 48%
    21:00 +24°C° 0 mm 1 mps 757 mmHg 50%
    22:00 +24°C° 0 mm 1 mps 757 mmHg 51%
    23:00 +23°C° 0 mm 1 mps 757 mmHg 52%

    22 October, Sunday

    Time Temperature Precipitation Wind Pressure Humidity
    00:00 +23°C° 0 mm 1 mps 756 mmHg 54%
    01:00 +22°C° 0 mm 1 mps 756 mmHg 55%
    02:00 +22°C° 0 mm 1 mps 756 mmHg 56%
    03:00 +22°C° 0 mm 1 mps 756 mmHg 57%
    04:00 +21°C° 0 mm 1 mps 756 mmHg 57%
    05:00 +21°C° 0 mm 1 mps 756 mmHg 58%
    06:00 +21°C° 0 mm 1 mps 756 mmHg 58%
    07:00 +22°C° 0 mm 1 mps 757 mmHg 52%
    08:00 +24°C° 0 mm 1 mps 757 mmHg 46%
    09:00 +26°C° 0 mm 1 mps 757 mmHg 39%
    10:00 +27°C° 0 mm 1 mps 757 mmHg 37%
    11:00 +28°C° 0 mm 2 mps 757 mmHg 35%
    12:00 +28°C° 0 mm 2 mps 757 mmHg 32%
    13:00 +29°C° 0 mm 3 mps 757 mmHg 33%
    14:00 +29°C° 0 mm 4 mps 757 mmHg 34%
    15:00 +29°C° 0 mm 5 mps 756 mmHg 35%
    16:00 +28°C° 0 mm 5 mps 756 mmHg 39%
    17:00 +26°C° 0 mm 5 mps 757 mmHg 43%
    18:00 +25°C° 0 mm 4 mps 757 mmHg 48%
    19:00 +25°C° 0 mm 4 mps 757 mmHg 51%
    20:00 +23°C° 0 mm 4 mps 757 mmHg 54%
    21:00 +23°C° 0 mm 4 mps 758 mmHg 57%
    22:00 +22°C° 0 mm 4 mps 758 mmHg 59%
    23:00 +22°C° 0 mm 4 mps 758 mmHg 61%

    23 October, Monday

    Time Temperature Precipitation Wind Pressure Humidity
    00:00 +22°C° 0 mm 4 mps 757 mmHg 63%
    01:00 +21°C° 0 mm 4 mps 757 mmHg 64%
    02:00 +21°C° 0 mm 3 mps 757 mmHg 66%
    03:00 +21°C° 0 mm 3 mps 757 mmHg 67%
    04:00 +20°C° 0 mm 3 mps 757 mmHg 68%
    05:00 +20°C° 0 mm 3 mps 757 mmHg 68%
    06:00 +20°C° 0 mm 4 mps 757 mmHg 69%
    07:00 +21°C° 0 mm 4 mps 757 mmHg 64%
    08:00 +22°C° 0 mm 4 mps 757 mmHg 59%
    09:00 +25°C° 0 mm 4 mps 758 mmHg 53%
    10:00 +26°C° 0 mm 4 mps 757 mmHg 50%
    11:00 +27°C° 0 mm 4 mps 757 mmHg 46%
    12:00 +27°C° 0 mm 5 mps 757 mmHg 42%
    13:00 +28°C° 0 mm 5 mps 757 mmHg 42%
    14:00 +28°C° 0 mm 5 mps 756 mmHg 41%
    15:00 +28°C° 0 mm 6 mps 756 mmHg 41%
    16:00 +27°C° 0 mm 6 mps 756 mmHg 47%
    17:00 +26°C° 0 mm 6 mps 756 mmHg 52%
    18:00 +24°C° 0 mm 6 mps 756 mmHg 58%
    19:00 +23°C° 0 mm 5 mps 756 mmHg 61%
    20:00 +23°C° 0 mm 5 mps 757 mmHg 64%
    21:00 +22°C° 0 mm 5 mps 757 mmHg 68%
    22:00 +22°C° 0 mm 4 mps 757 mmHg 69%
    23:00 +21°C° 0 mm 4 mps 756 mmHg 70%

    24 October, Tuesday

    Time Temperature Precipitation Wind Pressure Humidity
    00:00 +21°C° 0 mm 4 mps 756 mmHg 71%
    01:00 +21°C° 0 mm 4 mps 756 mmHg 72%
    02:00 +20°C° 0 mm 4 mps 756 mmHg 72%
    03:00 +20°C° 0 mm 4 mps 756 mmHg 73%
    04:00 +20°C° 0 mm 4 mps 756 mmHg 74%
    05:00 +19°C° 0 mm 4 mps 756 mmHg 74%
    06:00 +19°C° 0 mm 4 mps 756 mmHg 75%
    07:00 +20°C° 0 mm 4 mps 756 mmHg 68%
    08:00 +21°C° 0 mm 4 mps 756 mmHg 62%
    09:00 +24°C° 0 mm 3 mps 756 mmHg 56%
    10:00 +25°C° 0 mm 4 mps 756 mmHg 50%
    11:00 +26°C° 0 mm 4 mps 756 mmHg 44%
    12:00 +27°C° 0 mm 4 mps 756 mmHg 38%
    13:00 +27°C° 0 mm 4 mps 755 mmHg 37%
    14:00 +27°C° 0 mm 4 mps 755 mmHg 36%
    15:00 +27°C° 0 mm 5 mps 755 mmHg 35%
    16:00 +26°C° 0 mm 5 mps 755 mmHg 40%
    17:00 +25°C° 0 mm 5 mps 755 mmHg 45%
    18:00 +23°C° 0 mm 4 mps 755 mmHg 49%
    19:00 +23°C° 0 mm 4 mps 755 mmHg 52%
    20:00 +22°C° 0 mm 3 mps 755 mmHg 55%
    21:00 +22°C° 0 mm 3 mps 755 mmHg 58%
    22:00 +21°C° 0 mm 3 mps 755 mmHg 58%
    23:00 +21°C° 0 mm 2 mps 755 mmHg 59%
    Show more